COSMOS 1980 DEB

Satellite information

Favourite Embed

Satellite Type and Status

DEBRISIN ORBIT

Key statistics

Satellite COSMOS 1980 DEB at a glance.

Uptime

13315

Days in orbit

Revolutions

≈ 14.1

Per day

Orbit

LEO

Low Earth Orbit

Inclination

71.0

Latest

Satellite identification and parameters

Extended collection of information and parameters for COSMOS 1980 DEB.

Object identification

Identified? True

Debris? True

Object name: COSMOS 1980 DEB

International designator: 1988-102J

Object number (NORAD): 20301

Object ID (CCSDS): 20301

Country: COMMONWEALTH OF INDEPENDENT STATES (CIS)

Current information (Y/N): Y

RCS size: SMALL

Orbital parameters

Period: 101.808 minutes

Inclination: 70.9959 deg

SMA: 7222.418 km

Apoapsis: 854.461 km

Periapsis: 834.106 km

RAAN: 155.0253 deg

Eccentricy: 0.0014092

Argument of periapsis: 38.9027 deg

Mean anomaly: 321.3107 deg

Mean motion: 14.14421344 rev/day

Mean motion (dot): -0.00000229 rev/day2

B* drag term: -0.000094568 1/REarth

Two-line elements (TLE)

Creation date: May 8, 2025, 3:01 a.m.

Reference frame: TEME

Reference center: EARTH

Epoch: May 7, 2025, 12:06 p.m. UTC

TLE line 0: 0 COSMOS 1980 DEB

TLE line 1: 1 20301U 88102J 25127.50454174 -.00000229 00000-0 -94568-4 0 9993

TLE line 2: 2 20301 70.9959 155.0253 0014092 38.9027 321.3107 14.14421344847973

Live tracking on map

Real-time ground track for satellite COSMOS 1980 DEB.

In-orbit conjunctions

A list of the most updated potential collisions computed for object COSMOS 1980 DEB.

Target Orbit TCA Probability of collision Miss distance Type
FENGYUN 1C DEB SSO 2025-03-23 13:53:57 0.0001454362 415.0 (m) DEBRIS
DMSP 5D-2 F13 DEB SSO 2024-12-01 01:08:32 0.000182277 138.0 (m) DEBRIS
NOAA 16 DEB SSO 2024-07-13 00:56:39 0.0001369783 284.0 (m) DEBRIS

Associated space launch

Second generation ELING satellite

COSMOS 1980 DEB was lifted into orbit during the mission ‘Zenit-2 | Tselina-2 6’, on board a Zenit-2 space rocket.

The launch took place on Nov. 23, 1988, 2:50 p.m. from 45/1.

For more information about the launch, click the button.

Launch to space Zenit-2 | Tselina-2 6
Zenit-2 | Tselina-2 6

Agency: N/A

Status: Launch Successful

Launch date: Nov. 23, 1988, 2:50 p.m. UTC

Rocket: Zenit-2

Launch pad: 45/1

Location: Baikonur Cosmodrome, Republic of Kazakhstan

...

Latest news about this satellite

There are no fresh news available about this satellite. Check back as we update our databases every day.


Newsletter sign-up

Weekly statistics, charts and insights to help you stay on top of the space industry.